sat.trackr.live / text

‹ back to catalog

STARLINK-31966

NORAD 59944 · 2024-106Y

PAYLOAD ACTIVE UNKNOWN

§ Identity

Operator
Country
US
Launch date
2024-06-01
Launch site
AFETR
Launch vehicle
Mass (kg)
RCS (m²)

Purposes: comms

External: N2YO · Heavens-Above · Gunter

§ Orbital elements

Epoch: 2026-09-21T09:47:52.643616Z

Period
94.27 min
Inclination
43.0023°
Eccentricity
0.0001116
Mean motion
15.27577527 rev/d
Perigee alt
482.3 km
Apogee alt
483.8 km
Semi-major
6,861.2 km
B*
1.0291e-5
RAAN
307.3604°
Arg perigee
279.3108°
Mean anomaly
80.7618°
Rev number
13,050

§ Raw data

STARLINK-319661 59944U 24106Y   26264.40824819  .00000021  00000+0  10291-4 0  99992 59944  43.0023 307.3604 0001116 279.3108  80.7618 15.27577527130504

JSON: /api/v1/satellites/59944 · /tle

For live sub-satellite position, see the globe view (requires WebGL).

§ Visibility from observer

Set your observer location to see the next 7 days of passes ≥ 10°. The values pass through the URL so the page stays shareable.

No JS? Fill the form by hand. The geolocation button needs JavaScript.